Weather History for Baker, OR

Change the Weather History Date:

Thursday, February 21, 2013

  Actual Average Record
Temperature  
Mean Temperature 29 °F 31 °F  
Max Temperature 38 °F 42 °F 57 °F (1991)
Min Temperature 19 °F 20 °F -12 °F (1957)
Degree Days  
Heating Degree Days 36 34  
Month to date heating degree days 703 766  
Since 1 July heating degree days 5156 5289  
Cooling Degree Days 0 0  
Month to date cooling degree days 0 0  
Year to date cooling degree days 0 0  
Moisture  
Dew Point 23 °F    
Average Humidity 76    
Maximum Humidity 100    
Minimum Humidity 52    
Precipitation  
Precipitation T in 0.02 in 0.26 in (1977)
Month to date precipitation 0.23 0.43  
Year to date precipitation 1.07 1.23  
Sea Level Pressure  
Sea Level Pressure 30.09 in    
Wind  
Wind Speed 3 mph (NNW)    
Max Wind Speed 10 mph    
Max Gust Speed 12 mph    
Visibility 10 miles    
Events      
T = Trace of Precipitation, MM = Missing Value Source: NWS Daily Summary

Daily Weather History Graph

Daily Weather History Graph

Search for Another Location

Airport:

Trip Planner

Search our weather history database for the weather conditions in past years. The results will help you decide how hot, cold, wet, or windy it might be!

Date:

Astronomy

Feb. 21, 2013 Rise Set
Actual Time 6:41 AM PST 5:28 PM PST
Civil Twilight 6:12 AM PST 5:58 PM PST
Nautical Twilight 5:38 AM PST 6:32 PM PST
Astronomical Twilight 5:04 AM PST 7:06 PM PST
Moon 1:41 PM PST 3:56 AM PST
Length of Visible Light 11h 46m
Length of Day
10h 46m
Waxing Gibbous, 84% of the Moon is Illuminated
Feb 21
Waxing Gibbous
Feb 25
Full
Mar 4
Last Quarter
Mar 11
New
Mar 19
First Quarter

Hourly Weather History & Observations

Time (PST) Temp. Windchill Dew Point Humidity Pressure Visibility Wind Dir Wind Speed Gust Speed Precip Events Conditions
12:53 AM 21.9 °F 17.2 °F 19.9 °F 92% 30.03 in 10.0 mi Variable 3.5 mph - N/A   Clear
1:53 AM 21.0 °F - 19.0 °F 92% 30.05 in 10.0 mi Calm Calm - N/A   Clear
2:53 AM 19.4 °F - 17.6 °F 93% 29.98 in 10.0 mi Calm Calm - N/A   Clear
3:53 AM 19.9 °F - 17.1 °F 89% 30.06 in 10.0 mi Calm Calm - N/A   Overcast
4:53 AM 21.9 °F - 18.0 °F 85% 30.09 in 10.0 mi Calm Calm - N/A   Overcast
5:53 AM 21.0 °F - 17.1 °F 85% 30.10 in 10.0 mi Calm Calm - N/A   Scattered Clouds
6:53 AM 21.9 °F - 19.9 °F 92% 30.11 in 10.0 mi Calm Calm - N/A   Overcast
7:53 AM 25.0 °F - 21.0 °F 85% 30.11 in 10.0 mi Calm Calm - N/A   Overcast
8:53 AM 30.0 °F 25.2 °F 25.0 °F 82% 30.11 in 10.0 mi North 4.6 mph - N/A   Overcast
9:53 AM 34.0 °F 28.0 °F 26.1 °F 73% 30.11 in 10.0 mi NNE 6.9 mph - N/A   Overcast
10:53 AM 36.0 °F 31.1 °F 23.0 °F 59% 30.10 in 10.0 mi NNE 5.8 mph - N/A   Overcast
11:53 AM 37.0 °F 33.3 °F 23.0 °F 57% 30.10 in 10.0 mi Variable 4.6 mph - N/A   Overcast
12:53 PM 37.0 °F 33.3 °F 21.9 °F 54% 30.09 in 10.0 mi North 4.6 mph - N/A   Overcast
1:53 PM 37.0 °F 34.5 °F 21.0 °F 52% 30.09 in 10.0 mi West 3.5 mph - N/A   Mostly Cloudy
2:53 PM 37.0 °F 33.3 °F 21.9 °F 54% 30.08 in 10.0 mi North 4.6 mph - N/A   Overcast
3:53 PM 34.0 °F 26.0 °F 25.0 °F 70% 30.09 in 10.0 mi NW 10.4 mph - N/A   Overcast
4:53 PM 33.1 °F 27.7 °F 27.0 °F 78% 30.10 in 10.0 mi NNW 5.8 mph - 0.00 in   Overcast
5:53 PM 30.9 °F 27.5 °F 27.0 °F 85% 30.11 in 10.0 mi ESE 3.5 mph - 0.00 in   Overcast
6:53 PM 30.0 °F 24.1 °F 27.0 °F 88% 30.12 in 10.0 mi SW 5.8 mph - 0.00 in   Overcast
7:53 PM 28.4 °F 23.3 °F 26.6 °F 93% 30.03 in 10.0 mi ESE 4.6 mph - N/A   Overcast
8:53 PM 28.9 °F - 28.0 °F 96% 30.10 in 10.0 mi Calm Calm - N/A   Overcast
9:53 PM 28.9 °F - 27.0 °F 92% 30.11 in 9.0 mi Calm Calm - N/A   Overcast
11:53 PM 27.0 °F 23.0 °F 26.1 °F 96% 30.11 in 9.0 mi SSW 3.5 mph - N/A   Scattered Clouds